Home > Weather > Erftstadt > Past weeks

Flag for Germany Past Weather in Erftstadt, North Rhine-Westphalia, Germany — Yesterday and Last 2 Weeks

Now
59 °F

Partly sunny.


Feels Like: 59 °F
Forecast: 50 / 71 °F
Wind: 1 mph from North

Location: Noervenich

Current Time: May 25, 2016 at 6:56:23 PM

Latest Report: May 25, 2016 at 6:20 PM


Visibility: N/A

Pressure: 29.98 "Hg

Humidity: 68%

Dew Point: 48 °F

Location of ErftstadtLocation

Past Weather in Erftstadt — Graph

°F

Erftstadt Temperature Yesterday

Maximum temperature yesterday: 55 °F (at 4:20 PM)
Minimum temperature yesterday: 50 °F (at 12:20 AM)
Average temperature yesterday: 52 °F

High & Low Weather Summary for the Past Weeks

 TemperatureHumidityPressure
High75 °F (May 11, 2:20 PM)94% (May 11, 4:20 AM)30.15 "Hg (May 11, 4:20 AM)
Low41 °F (May 15, 2:20 AM)31% (May 13, 6:20 PM)29.47 "Hg (May 12, 4:20 PM)
Average57 °F68%29.89 "Hg
* Reported May 10 5:20 PM — May 25 5:20 PM, Erftstadt, Weather by CustomWeather, © 2016

Note: Actual official high and low records may vary slightly from our data, if they occured in-between our weather recording intervals... More about our weather records

Advertising

Erftstadt Weather History for the Previous 24 Hours

Scroll right to see more
 ConditionsComfort  
Time TempWeatherWind HumidityBarometerVisibility
5:20 PM
Wed, May 25
61 °FPartly sunny.1 mph59%29.98 "HgN/A
5:00 PM59 °FPartly sunny.No wind63%29.98 "HgN/A
4:20 PM59 °FPartly sunny.No wind63%29.98 "HgN/A
3:20 PM59 °FPartly sunny.No wind63%29.98 "HgN/A
2:20 PM57 °FPartly sunny.2 mph63%29.98 "HgN/A
1:20 PM57 °FPartly sunny.2 mph63%29.98 "HgN/A
12:20 PM57 °FPartly sunny.2 mph67%29.98 "HgN/A
11:20 AM55 °FPartly sunny.2 mph67%29.98 "HgN/A
10:20 AM54 °FPartly sunny.1 mph77%30.01 "HgN/A
9:20 AM52 °FPartly sunny.2 mph82%30.01 "HgN/A
8:20 AM50 °FPartly sunny.2 mph88%30.01 "HgN/A
7:20 AM48 °FPartly sunny.1 mph94%30.01 "HgN/A
6:20 AM48 °FPassing clouds.2 mph94%29.98 "HgN/A
5:20 AM48 °FCool.2 mph94%29.98 "HgN/A
4:20 AM48 °FCool.No wind94%29.98 "HgN/A
3:20 AM48 °FCool.2 mph94%30.01 "HgN/A
2:20 AM50 °FCool.3 mph88%30.01 "HgN/A
1:20 AM50 °FCool.3 mph88%30.01 "HgN/A
12:20 AM50 °FCool.2 mph88%30.01 "HgN/A
11:20 PM
Tue, May 24
50 °FCool.2 mph88%30.01 "HgN/A
10:20 PM52 °FCool.2 mph82%30.01 "HgN/A
9:20 PM54 °FCool.3 mph77%30.01 "HgN/A
8:20 PM54 °FCool.6 mph77%30.01 "HgN/A
7:20 PM55 °FLight rain. Partly sunny.7 mph72%30.01 "HgN/A
6:20 PM55 °FPartly sunny.8 mph72%30.01 "HgN/A
Weather by CustomWeather, © 2016

See weather overviewHow to use our weather pages